This is the latest recevied weather packets stored in our database for station/object KG4GJX. If no packets are shown the sender has not sent any weather packets the latest 10 day(s).
| Time | Temp. | Humidity | Pressure | Rain* | Wind** | Luminosity | Snow |
|---|---|---|---|---|---|---|---|
| 1788349166 | 21.11° C | 100% | 1020.3 hPa | 0 mm | - | - | - |
| 1788347844 | 21.11° C | 100% | 1019.9 hPa | 0 mm | - | - | - |
| 1788347182 | 20.56° C | 100% | 1019.6 hPa | 0 mm | - | - | - |
| 1788346519 | 21.11° C | 100% | 1019.9 hPa | 0 mm | - | - | - |
| 1788342557 | 21.11° C | 100% | 1019.6 hPa | 0 mm | - | - | - |
| 1788341895 | 21.67° C | 100% | 1019.6 hPa | 0 mm | - | - | - |
| 1788340572 | 21.67° C | 100% | 1019.3 hPa | 0 mm | - | - | - |
| 1788335290 | 21.67° C | 100% | 1018.9 hPa | 0 mm | - | - | - |
| 1788331328 | 22.22° C | 100% | 1018.9 hPa | 0 mm | - | - | - |
| 1788330665 | 22.22° C | 100% | 1019.3 hPa | 0 mm | - | - | - |
| 1788330003 | 22.22° C | 100% | 1018.9 hPa | 0 mm | - | - | - |
| 1788328681 | 22.22° C | 100% | 1019.3 hPa | 0 mm | - | - | - |
| 1788328018 | 22.22° C | 100% | 1018.9 hPa | 0 mm | - | - | - |
| 1788326695 | 22.78° C | 100% | 1019.3 hPa | 0 mm | - | - | - |
| 1788325373 | 22.78° C | 100% | 1018.9 hPa | 0 mm | - | - | - |
| 1788323390 | 22.78° C | 100% | 1019.3 hPa | 0 mm | - | - | - |
| 1788322728 | 22.78° C | 100% | 1019.3 hPa | 0 mm | - | - | - |
| 1788319425 | 23.33° C | 100% | 1019.3 hPa | 0 mm | - | - | - |
| 1788318762 | 23.89° C | 100% | 1019.3 hPa | 0 mm | - | - | - |
| 1788316780 | 23.89° C | 100% | 1019.6 hPa | 0 mm | - | - | - |
| 1788316117 | 24.44° C | 100% | 1019.6 hPa | 0 mm | - | - | - |
| 1788315455 | 24.44° C | 99% | 1019.6 hPa | 0 mm | - | - | - |
| 1788314792 | 24.44° C | 98% | 1019.3 hPa | 0 mm | - | - | - |
| 1788314129 | 25° C | 98% | 1019.3 hPa | 0 mm | - | - | - |
| 1788312807 | 25° C | 96% | 1019.3 hPa | 0 mm | - | - | - |
* Rain latest hour (hover to see other rain measurements)
** Current wind speed in m/s (hover to see current wind gust speed)